Regional Weather Roundup
Issued by NWS

Home | Current Version | Previous Version | Text Only | Print | Product List | Glossary On
Versions: 1 2 3 4 5 6 7 8 9 10 11 12 13 14 15 16 17 18 19 20 21 22 23 24 25 26 27 28 29 30 31 32 33 34 35 36 37 38 39 40 41 42 43 44 45 46 47 48 49 50
000
ASUS42 KTBW 160910
RWRFL
FLORIDA REGIONAL WEATHER ROUNDUP
NATIONAL WEATHER SERVICE TAMPA BAY RUSKIN FL
500 AM EDT TUE SEP 16 2014

NOTE: "FAIR" INDICATES FEW OR NO CLOUDS BELOW 12,000 FEET WITH NO
SIGNIFICANT WEATHER AND/OR OBSTRUCTIONS TO VISIBILITY.


FLZ001>010-012>015-112-114-115-161000-
PANHANDLE FLORIDA

CITY           SKY/WX    TMP DP  RH WIND       PRES   REMARKS
PENSACOLA      PTCLDY    75  75 100 N5        30.03F
PENSACOLA NAS  PTCLDY    75  74  96 CALM      30.03F
MILTON NAS     PTCLDY    73  71  93 CALM      30.04F
CRESTVIEW      PTCLDY    73  72  96 CALM      30.05F FOG
DUKE FIELD     FAIR      74  74 100 NW3       30.04F
VALPARAISO     MOCLDY    76  75  94 CALM      30.03F
MARY ESTHER    MOCLDY    77  72  83 N5        30.02F
PANAMA CITY    FAIR      77  73  88 CALM      30.03F
TYNDALL AFB    TSTM      77  77 100 SW13      30.04S VSB 1
APALACHICOLA   CLOUDY    78  74  87 W5        30.05R

STATION/POSITION SKY/WX   TEMP    WIND        PRES    WAVE   SWELL
                          AIR SEA DIR/SP/G            HT/PER HT/PER
                          (F)     (DEG/KT/KT) (MB)    (FT/S) (FT/S)
30.1N   87.6W              83 86  270/ 14/ 17 1016.7F   3/ 8   2/ 8
29.2N   88.2W              80 85  240/ 12/ 16 1018.3R   3/ 6   2/ 6
28.8N   86.0W              84 86  210/ 12/ 14 1017.4F   3/ 7   2/ 7
PANAMA CITY BEAC           83 86  230/  7/  8 1017.0S
CAPE SAN BLAS    NOT AVBL
TOWER C                    79     240/ 12/ 14 1017.9F
28.5N   84.5W              81 85  190/  8/ 12 1018.1F   2/ 6   2/ 6

$$
FLZ011-016>038-118-127-128-134-139-239-161000-
NORTH FLORIDA

CITY           SKY/WX    TMP DP  RH WIND       PRES   REMARKS
MARIANNA       PTCLDY    76  76 100 CALM      30.04F
TALLAHASSEE    CLOUDY    77  74  90 SW6       30.05F
PERRY          DRIZZLE   73  73 100 SW7       30.06F
CROSS CITY       N/A    N/A N/A N/A MISG      30.07F
LAKE CITY      DRIZZLE   72  72 100 SW5       30.08S
GAINESVILLE    LGT RAIN  75  73  93 W14       30.09S
MAYPORT NAS    CLOUDY    76  75  97 S3        30.06S
JACKSONVILLE   CLOUDY    75  74  96 SW5       30.06S
JAX NAS        CLOUDY    80  72  76 SW10      30.07S
JAX CRAIG      CLOUDY    77  74  90 SW3       30.06F
JAX CECIL      CLOUDY    73  73 100 S3        30.07S
FERNANDINA BEA FAIR      77  73  88 SW5       30.05S
ST AUGUSTINE   CLOUDY    76  74  93 SW7       30.07F

STATION/POSITION SKY/WX   TEMP    WIND        PRES    WAVE   SWELL
                          AIR SEA DIR/SP/G            HT/PER HT/PER
                          (F)     (DEG/KT/KT) (MB)    (FT/S) (FT/S)
SHELL POINT                79     230/ 10/ 12   N/A
KEATON BEACH               81     220/ 16/ 17 1018.1F
CEDAR KEY                  77     300/ 11/ 13 1019.9S
FERNANDINA                 77 86  220/  9/ 11 1017.3S
30.7N   81.3W                 84                N/A     2/ 8
MAYPORT                    77 84  200/  4/  6   N/A
31.4N   80.9W              80 84  300/ 10/ 12 1017.9R   2/ 9   2/ 9
ST AUGUSTINE               76     240/  6/  8 1018.8F

$$
FLZ040-043>046-052-053-057-058-063-144-161000-
INTERIOR CENTRAL FLORIDA

CITY           SKY/WX    TMP DP  RH WIND       PRES   REMARKS
OCALA          CLOUDY    73  70  88 W5        30.10S
THE VILLAGES     N/A     77  75  94 MISG      30.00R FOG
LEESBURG       MOCLDY    77  74  90 SW3       30.09F
SANFORD        PTCLDY    77  72  84 W3        30.08F
ORLANDO EXEC   PTCLDY    78  73  84 CALM      30.08F
ORLANDO INTL   PTCLDY    75  73  93 CALM      30.09S
WINTER HAVEN   PTCLDY    76  73  91 CALM      30.10S
LAKELAND       PTCLDY   N/A N/A N/A CALM      30.09S
BARTOW         FAIR      73  73 100 CALM      30.09F
OKEECHOBEE       N/A     72  72 100 MISG        N/A

$$
FLZ041-047-054-059-064-141-147-161000-
EAST CENTRAL FLORIDA

CITY           SKY/WX    TMP DP  RH WIND       PRES   REMARKS
DAYTONA BEACH  MOCLDY    75  72  90 CALM      30.07F
DELAND         PTSUNNY   75  72  88 CALM      30.08F
JFK SPACE CTR  MOCLDY    77  73  85 W3        30.08S
CAPE CANAVERAL MOCLDY    77  73  87 W6        30.07S
PATRICK AFB    MOCLDY    78  73  82 W5        30.07F
MELBOURNE      PTCLDY    75  70  84 W5        30.07F
VERO BEACH     PTCLDY    73  71  93 N3        30.07F
FT PIERCE      PTCLDY    75  72  90 CALM      30.07F
STUART         MOCLDY    75  73  94 NW3       30.09R

STATION/POSITION SKY/WX   TEMP    WIND        PRES    WAVE   SWELL
                          AIR SEA DIR/SP/G            HT/PER HT/PER
                          (F)     (DEG/KT/KT) (MB)    (FT/S) (FT/S)
28.5N   80.2W              78 84  170/ 10/ 12 1018.6F
28.9N   78.5W              83 85  260/  8/ 12 1018.1F   2/ 8   2/ 8
TRIDENT PIER               78 86  230/  4/  5 1018.0S
28.4N   80.5W                 84                N/A     1/ 8
27.6N   80.2W                 83                N/A     1/ 8

$$
FLZ050-056-061-142-242-148-248-149-249-151-251-155-255-
160-260-161000-
WEST CENTRAL FLORIDA

CITY           SKY/WX    TMP DP  RH WIND       PRES   REMARKS
CRYSTAL RIVER  CLOUDY    73  72  94 CALM      30.10F
INVERNESS      FAIR      73  63  68 CALM      30.10S
BROOKSVILLE    CLOUDY    74  73  97 CALM      30.09F
ZEPHYRHILLS    FAIR      66  64  94 CALM      30.10S
CLEARWATER     MOCLDY    77  74  90 CALM      30.08F
TAMPA INTL     MOCLDY    78  72  81 CALM      30.09F
TAMPA EXEC     PTCLDY    73  72  94 CALM      30.09S FOG
PLANT CITY     PTCLDY    75 N/A N/A CALM      30.10F
MACDILL AFB    PTCLDY    74  73  97 N3        30.08F
ST PETERSBURG  PTCLDY    82  74  76 CALM      30.06F
SARASOTA       PTCLDY    76  73  91 CALM      30.07S
VENICE           N/A    N/A N/A N/A MISG        N/A

STATION/POSITION SKY/WX   TEMP    WIND        PRES    WAVE   SWELL
                          AIR SEA DIR/SP/G            HT/PER HT/PER
                          (F)     (DEG/KT/KT) (MB)    (FT/S) (FT/S)
CEDAR KEY                  77     300/ 11/ 13 1019.9S
28.5N   84.5W              81 85  190/  8/ 12 1018.1F   2/ 6   2/ 6
27.3N   84.3W                 86                N/A     2/ 5
CLEARWATER BEACH NOT AVBL
MIDDLE TAMPA BAY           81     110/  6/  7 1018.7F
VENICE                     78 87   30/  5/  5 1018.1F

$$
FLZ066-069-070-075>078-162-262-165-265-161000-
SOUTHWEST FLORIDA AND KEYS

CITY           SKY/WX    TMP DP  RH WIND       PRES   REMARKS
PUNTA GORDA    CLEAR     76  74  93 CALM      30.08F
FT MYERS       CLEAR     76  74  93 CALM      30.06F
SOUTHWEST INTL PTCLDY    76  71  85 NE3       30.06F
NAPLES         PTCLDY    79  74  84 CALM      30.06S
MARCO ISLAND   CLOUDY    77  73  88 CALM      30.06S
MARATHON       CLEAR     82  76  81 E6        30.05F
KEY WEST NAS   CLEAR     81  76  84 NE5       30.06S
KEY WEST INTL  CLEAR     82  76  81 NE5       30.06F

STATION/POSITION SKY/WX   TEMP    WIND        PRES    WAVE   SWELL
                          AIR SEA DIR/SP/G            HT/PER HT/PER
                          (F)     (DEG/KT/KT) (MB)    (FT/S) (FT/S)
VENICE                     78 87   30/  5/  5 1018.1F
NAPLES                     81 89  100/  3/  3 1018.4F
DRY TORTUGAS               83     110/ 10/ 11 1017.6F
NW FL BAY                  81      40/  5/  5 1018.4F
SAND KEY                   82      50/ 11/ 12 1017.8F
SOMBRERO KEY               83      70/  8/  8 1018.4S
LONG KEY                   83 84   70/  8/ 10 1018.5F
MOLASSES REEF              83 85   90/  8/  9 1017.7R

$$
FLZ067-068-071>074-168-172>174-161000-
SOUTHEAST FLORIDA

CITY           SKY/WX    TMP DP  RH WIND       PRES   REMARKS
W PALM BEACH   PTCLDY    78  75  90 CALM      30.06S
FT LAUDER-EXEC CLEAR     79  77  94 CALM      30.06S
FT LAUDERDALE  PTCLDY    80  75  84 N3        30.05S
POMPANO BEACH  CLEAR     79  74  84 CALM      30.06S
PEMBROKE PINES CLEAR     77  74  90 CALM      30.07S
OPA LOCKA      CLEAR     78  74  87 CALM      30.06F
MIAMI          PTCLDY    79  74  84 CALM      30.06S
WEST KENDALL   CLEAR     76  74  93 CALM      30.06S
HOMESTEAD      CLEAR     76  74  92 W5        30.06S

STATION/POSITION SKY/WX   TEMP    WIND        PRES    WAVE   SWELL
                          AIR SEA DIR/SP/G            HT/PER HT/PER
                          (F)     (DEG/KT/KT) (MB)    (FT/S) (FT/S)
PORT EVERGLADES            82      80/  3/  5 1017.7
VIRGINIA KEY               83 85   80/  3/  5   N/A
LAKE WORTH                 79 85  290/  3/  4 1017.7S
FOWEY ROCKS                83 85   90/  7/  7 1018.2R
SETTLEMENT POINT           80     130/  4/  4 1018.5F

$$



USA.gov is the U.S. government's official web portal to all federal, state and local government web resources and services.